Regional Weather Roundup
Issued by NWS Portland, ME

Home | Current Version | Previous Version | Text Only | Print | Product List | Glossary On
Versions: 1 2 3 4 5 6 7 8 9 10 11 12 13 14 15 16 17 18 19 20 21 22 23 24 25 26 27 28 29 30 31 32 33 34 35 36 37 38 39 40 41 42 43 44 45 46 47 48 49 50
000
ASUS41 KGYX 250610
RWRGYX
WEATHER ROUNDUP FOR MAINE AND NEW HAMPSHIRE
NATIONAL WEATHER SERVICE GRAY ME
200 AM EDT SAT OCT 25 2014

MEZ002-005-006-010-012-015-018-020-021-024-026-027-029-250700-
MAINE

CITY           SKY/WX    TMP DP  RH WIND       PRES   REMARKS
PORTLAND       CLOUDY    50  42  74 W6        29.71S
6HR MIN TEMP:  49; 6HR MAX TEMP:  51;

SANFORD        MOCLDY    45  39  81 W8        29.73R
BAR HARBOR     CLOUDY    45  45 100 NW8       29.63S
WISCASSET      CLOUDY    48  42  80 CALM      29.69F
6HR MIN TEMP:  46; 6HR MAX TEMP:  49; 6HR PCP: TRACE;

ROCKLAND       CLOUDY    45  43  93 W5        29.65S
FRYEBURG       CLOUDY    44  40  85 CALM      29.71F
6HR MIN TEMP:  43; 6HR MAX TEMP:  48;

LEWISTONAUBURN CLOUDY    48  37  66 NW7       29.69S
AUGUSTA        CLOUDY    48  39  71 NW9       29.68S
6HR MIN TEMP:  46; 6HR MAX TEMP:  48;

WATERVILLE     CLOUDY    46  39  76 N8        29.64S
BANGOR         MOCLDY    44  42  93 NW6       29.65S
6HR MIN TEMP:  43; 6HR MAX TEMP:  44; 6HR PCP:  0.02;

GREENVILLE       N/A     42  30  62 NW15G24   29.63S
6HR MIN TEMP:  41; 6HR MAX TEMP:  42;

MILLINOCKET    CLOUDY    45  40  82 N10       29.65S
6HR MIN TEMP:  43; 6HR MAX TEMP:  46; 6HR PCP:  0.03;

HOULTON        CLOUDY    42  40  92 N12G17    29.62R
6HR MIN TEMP:  41; 6HR MAX TEMP:  42; 6HR PCP:  0.02;

PRESQUE ISLE   CLOUDY    41  37  87 N10       29.64S
6HR MIN TEMP:  41; 6HR MAX TEMP:  43; 6HR PCP:  0.05;

FRENCHVILLE    CLOUDY    37  33  85 NW9       29.65F
6HR MIN TEMP:  36; 6HR MAX TEMP:  39; 6HR PCP:  0.10;

CARIBOU        CLOUDY    41  37  86 NW8       29.63F
6HR MIN TEMP:  41; 6HR MAX TEMP:  42; 6HR PCP:  0.07;

$$

NHZ002-005-008-009-011-012-014-250700-
NEW HAMPSHIRE

CITY           SKY/WX    TMP DP  RH WIND       PRES   REMARKS
PORTSMOUTH     MOCLDY    47  43  86 W7        29.72S
ROCHESTER      CLOUDY    46  42  86 VRB3      29.72S
6HR MIN TEMP:  44; 6HR MAX TEMP:  49;

NASHUA         CLOUDY    49  42  76 NW6       29.76S
MANCHESTER     CLOUDY    49  40  71 NW3       29.74S
6HR MIN TEMP:  47; 6HR MAX TEMP:  49;

CONCORD        CLOUDY    48  38  68 NW7       29.75S
6HR MIN TEMP:  46; 6HR MAX TEMP:  48;

LACONIA        PTCLDY    46  37  71 SW7       29.72S
PLYMOUTH       FAIR      46  40  79 W9        29.74F
BERLIN         CLOUDY    39  38  96 CALM      29.75S
6HR MIN TEMP:  37; 6HR MAX TEMP:  44;

WHITEFIELD     PTCLDY    41  39  93 CALM      29.77F
6HR MIN TEMP:  41; 6HR MAX TEMP:  44; 6HR PCP:  0.02;

JAFFREY        CLEAR     46  37  71 VRB3      29.77S
6HR MIN TEMP:  45; 6HR MAX TEMP:  47;

LEBANON        CLEAR     38  35  89 CALM      29.77F
6HR MIN TEMP:  38; 6HR MAX TEMP:  48;

MT WASHINGTON  MOCLDY    28  23  80 N48         N/A  WCI   9
6HR MIN TEMP:  26; 6HR MAX TEMP:  36;

$$

VTZ005-007-008-250700-
VERMONT

CITY           SKY/WX    TMP DP  RH WIND       PRES   REMARKS
ST JOHNSBURY     N/A     38  37  97 MISG      29.77
MONTPELIER     CLEAR     35  34  96 CALM      29.81F
BURLINGTON     CLEAR     38  35  89 CALM      29.79F
$$

MAZ007-012-024-CTZ003-RIZ002-NYZ038-NYZ072-250700-
SOUTHERN NEW ENGLAND AND NY

CITY           SKY/WX    TMP DP  RH WIND       PRES   REMARKS
BOSTON         MOCLDY    46  41  82 W10       29.75S
WORCESTER      CLEAR     45  38  76 NW12      29.76R
NANTUCKET      CLOUDY    51  44  77 NW9       29.73F
PROVIDENCE     CLEAR     47  42  83 W3        29.77S
HARTFORD       CLEAR     50  39  66 NW7       29.78F
ALBANY         PTCLDY    41  39  93 CALM      29.84F
NEW YORK CITY  MOCLDY    56  37  49 NW13      29.85R
$$

ANZ081-ANZ082-ANZ150-NHZ014-MEZ023>029-250700-
COASTAL MARINE OBSERVATIONS

STATION/POSITION TIME  TEMP    WIND        PRES    WAVE
                       AIR SEA DIR/SP/G            HT/PER
                 (UTC) (F)     (DEG/KT/KT) (MB)    (FT/S)
MOUNT DESERT ROC 0600   46                   N/A
MATINICUS ROCK   0600          330/ 15/ 16 1003.7R
PORTLAND WX BUOY 0550   50 53  290/ 10/ 12 1005.3S   2/10
WELLS            0500   47 51  280/  4/  6 1005.5S
ISLE OF SHOALS   0600   48     290/ 14/ 15 1005.8R
JEFFREYS LEDGE   0521      56                N/A     5/10
CASHES LEDGE BUO 0550   50 54  320/ 17/ 21 1003.7R   6/ 6
$$

.............KEY..............
   WCI - WIND CHILL
   TC  - TEMPERATURE IN CELSIUS
   VSB - VISIBILITY IN MILES
   HX  - HEAT INDEX
   FAIR- INDICATES FEW OR NO CLOUDS BELOW 12,000 FT, WITH NO
         SIGNIFICANT WEATHER AND/OR OBSTRUCTIONS TO VISIBILITY.





USA.gov is the U.S. government's official web portal to all federal, state and local government web resources and services.